www.pogodaiklimat.ru

Погода и климат >> Архив погоды >> Боливия >> Консепсьон


ПОГОДА в Консепсьоне

  • Прогноз погоды в Консепсьоне
  • Монитор погоды в Консепсьоне

АРХИВ ПОГОДЫ в Консепсьоне

Время (UTC), дата Ветер
(напр.,м/с)
 
Видим.   Явления Облачность Т
(С)
Тd
(С)
f
(%)
Тe
(С)
Тes
(С)
Комфортность P
(гПа)
Po
(гПа)
Тmin
(С)
Tmax
(С)
R
(мм)
R24
(мм)
S
(см)
21 17.08 С 6 3000 м дым ясно +31.0 +15.4 39 +33 +34 душно 1011.4 953.0 +33.0
12 18.08 штиль 0 500 м дым ясно +21.0 +18.0 83 +25 +29 комфорт 1016.6 958.0 +20.6
15 18.08 С 3 1000 м дым ясно +29.0 +18.2 52 +34 +48 очень
душно
1017.4 959.0
18 18.08 С 5 1500 м дым ясно +32.0 +16.9 40 +35 +42 очень
душно
1015.6 957.0
21 18.08 С 4 1000 м дым 4/4 500 м
[Cu hum]
+31.5 +17.8 44 +36 +36 очень
душно
1013.5 955.0 +32.5
12 19.08 Ю 7 5000 м 5/3 600 м
[Cu hum Ac trans]
+21.0 +13.9 64 +24 +24 комфорт 1019.5 961.0 +19.0
15 19.08 Ю 6 8000 м дым 8/0 2000 м
[Ac trans]
+23.0 +11.7 49 +25 +29 комфорт 1020.7 962.2
18 19.08 Ю 3 8000 м дым ясно +28.0 +16.1 48 +31 +42 душно 1017.6 959.0
21 19.08 штиль 0 5000 м дым 6/6 500 м
[Cu hum]
+29.0 +14.6 41 +31 +32 жарко 1015.3 956.8 +30.4
12 20.08 Ю 3 20 км дым ясно +17.5 +8.8 57 +18 +20 1020.5 962.0 +15.5
15 20.08 Ю 3 9000 м дым ясно +25.0 +10.2 39 +26 +39 жарко 1021.7 963.2
18 20.08 ЮЗ 3 5000 м дым ясно +29.0 +15.5 44 +32 +44 душно 1018.7 960.2
21 20.08 Ю 5 3000 м дым ясно +29.5 +13.3 37 +31 +32 жарко 1017.3 958.8 +31.0
12 21.08 Ю 6 9000 м дым ясно +18.2 +4.9 41 +18 +19 1021.8 963.3 +16.0
15 21.08 Ю 5 8000 м дым ясно +25.5 +10.3 38 +26 +34 жарко 1022.2 963.7
18 21.08 штиль 0 6000 м дым ясно +31.0 +14.4 36 +33 +51 опасность
солнечного
удара
1018.5 960.0
21 21.08 штиль 0 2500 м дым ясно +32.0 +13.3 32 +33 +34 жарко 1016.6 958.1 +33.0
12 22.08 штиль 0 3000 м дым ясно +19.5 +13.0 66 +21 +25 комфорт 1018.5 960.0 +17.6
15 22.08 штиль 0 2500 м дым ясно +30.0 +15.0 40 +32 +54 опасность
солнечного
удара
1019.0 960.5
18 22.08 штиль 0 2000 м дым 1/1 600 м
[Cu hum]
+33.5 +16.8 37 +37 +53 опасность
солнечного
удара
1016.3 957.8
21 22.08 СЗ 3 1000 м дым 1/1 600 м
[Cu hum]
+33.0 +15.2 34 +35 +36 душно 1016.5 958.0 +35.0
12 23.08 Ю 8 15 км дым 5/3 600 м
[Cu hum Ac trans]
+19.5 +10.0 54 +20 +20 1022.2 963.7 +18.0
15 23.08 Ю 8 15 км дым ясно +24.5 +12.6 47 +26 +29 жарко 1022.5 964.0
18 23.08 Ю 6 8000 м дым ясно +29.5 +15.3 42 +32 +37 душно 1019.6 961.0
21 23.08 штиль 0 5000 м дым ясно +30.0 +15.9 43 +33 +35 душно 1016.8 958.3 +31.0
12 24.08 штиль 0 5000 м дым ясно +20.2 +14.2 68 +22 +27 комфорт 1017.4 959.0 +18.0
15 24.08 штиль 0 5000 м дым ясно +30.0 +15.0 40 +32 +54 опасность
солнечного
удара
1018.5 960.0

 

Местоположение метеостанции Консепсьон (Боливия): широта -16.14 долгота -62.01 высота над уровнем моря 497 м.

В архиве по умолчанию представлена погода в Консепсьоне за последнюю неделю. Архивные данные за месяц целиком и за предыдущие месяцы, начиная с января 2011 года, Вы можете получить, выбрав интересующий диапазон дат из раскрывающегося списка и нажав кнопку "Ввод!".


*Определитесь, кто Вы:
робот инопланетянин человек

Внимание! Время в таблицах - всемирное. Для получения местного времени необходимо прибавить поправку, которая равна -4 ч.

Смотрите также архив погоды в соседних городах и на ближайших метеорологических станциях:

Погода в Сан-Хавьере (Боливия) (50 км)
Погода в Сан-Игнасио (Боливия) (115 км)
Погода в Ассенсьон де Гуарае (Боливия) (126 км)
Погода в Виру-Виру (Боливия) (204 км)
Погода в Санта-Крусе (Боливия) (223 км)
Погода в Сан Хосе де Чикитосе (Боливия) (229 км)
Погода на Ферме Vila Bela da S Trind (Мату-Гросу, Бразилия) (258 км)
Погода в Понтис-и-Ласерде (Мату-Гросу, Бразилия) (302 км)
Погода в Валье Гранде (Боливия) (340 км)
Погода в Роборе (Боливия) (340 км)

Пояснения к столбцам:

Ветер - указаны скорость ветра в м/с - средняя за 10 мин, порывы в срок и между сроками (в фигурных скобках) и направление, откуда дует ветер: С - северный, СВ - северо-восточный, В - восточный, ЮВ - юго-восточный, Ю - южный, ЮЗ - юго-западный, З - западный, СЗ - северо-западный.
Видимость - горизонтальная дальность видимости в метрах или километрах. При видимости от 1 до 10 км при отсутствии осадков обычно наблюдается дымка, при ухудшении видимости до 1 км и менее - туман. В сухую погоду видимость может ухудшаться дымом, пылью или мглою.
Явления - указаны атмосферные явления, наблюдавшиеся в срок или в последний час перед сроком; фигурными скобками обозначены явления, наблюдавшиеся между сроками (за 1-3 часа до срока); квадратными скобками обозначены град или гололедные отложения с указанием их диаметра в мм.
Облачность - указаны через наклонную черту общая и нижняя облачность в баллах и высота нижней границы облаков в метрах; квадратными скобками обозначены формы облаков: Ci - перистые, Cs - перисто-слоистые, Cc - перисто-кучевые, Ac - высококучевые, As - высокослоистые, Sc - слоисто-кучевые, Ns - слоисто-дождевые, Cu - кучевые, Cb - кучево-дождевые. Подробнее классификацию облаков см. в Атласе облаков (PDF).
T - Температура воздуха - температура, измеренная на высоте 2 м над землей.
Td - Температура точки росы - температура, при понижении до которой содержащийся в воздухе водяной пар достигнет насыщения.
f - Относительная влажность воздуха - влажноcть воздуха, измеренная на высоте 2 м над землей.
Te - Эффективная температура - температура, которую ощущает одетый по сезону человек в тени. Характеристика душности погоды. При расчете учитывается влияние влажности воздуха и скорости ветра на теплоощущения человека.
Tes - Эффективная температура на солнце - температура, которую ощущает человек, с поправкой на солнечный нагрев. Характеристика знойности погоды. Зависит от высоты солнца над горизонтом, облачности и скорости ветра. Ночью, в пасмурную погоду, а также при ветре 12 м/с и более поправка равна нулю.
P - Атмосферное давление - приведенное к уровню моря атмосферное давление.
Po - Атмосферное давление - измеренное на уровне метеостанции атмосферное давление.
Tmin - Минимальная температура - минимум температуры воздуха на высоте 2 м над землей.
Tmax - Максимальная температура - максимум температуры воздуха на высоте 2 м над землей.
R - Количество осадков - Количество выпавших осадков за период времени, мм. При наведении курсора мыши на число - период времени, за который выпало указанное количество осадков.
R24 - Количество осадков - Количество выпавших осадков за 24 часа, мм.
S - Снежный покров - Высота снежного покрова, см. При наведении курсора мыши на число - состояние снежного покрова и степень покрытия местности в баллах.